,,,PA_Meas_PMT16A,,PR_Meas_QMR101_102,,RH_Meas_QMH101,,SR_Meas_QMS101,,TA_Meas_QMH101,,GenWind,,GenWind,
date,time,status,PA,status,PR,status,RH,status,SR,status,TA,status,DirAvg,status,SpdAvg,
2010-07-30, 00:00:04,VALID,1001.52,VALID,0,VALID,91.0214,VALID,0,VALID,23.3695,VALID,28,VALID,0.371484,
2010-07-30, 00:01:04,VALID,1001.51,VALID,0,VALID,91.2731,VALID,0,VALID,23.389,VALID,28,VALID,0.215625,
2010-07-30, 00:02:04,VALID,1001.53,VALID,0,VALID,91.3037,VALID,0,VALID,23.389,VALID,28,VALID,0.0582031,
2010-07-30, 00:03:04,VALID,1001.51,VALID,0,VALID,91.5249,VALID,0,VALID,23.428,VALID,28,VALID,0,
2010-07-30, 00:04:04,VALID,1001.53,VALID,0,VALID,91.3494,VALID,0,VALID,23.3872,VALID,28,VALID,0,
2010-07-30, 00:05:04,VALID,1001.52,VALID,0,VALID,91.38,VALID,0,VALID,23.4085,VALID,28,VALID,0,
2010-07-30, 00:06:04,VALID,1001.53,VALID,0,VALID,91.3952,VALID,0,VALID,23.3872,VALID,28,VALID,0,
2010-07-30, 00:07:04,VALID,1001.54,VALID,0,VALID,91.441,VALID,0,VALID,23.4067,VALID,28,VALID,0,
2010-07-30, 00:08:04,VALID,1001.55,VALID,0,VALID,91.38,VALID,0,VALID,23.4085,VALID,28,VALID,0,
2010-07-30, 00:09:04,VALID,1001.55,VALID,0,VALID,91.3113,VALID,0,VALID,23.4085,VALID,28,VALID,0,
2010-07-30, 00:10:04,VALID,1001.55,VALID,0,VALID,91.235,VALID,0,VALID,23.4085,VALID,28,VALID,0,
2010-07-30, 00:11:04,VALID,1001.53,VALID,0,VALID,91.3571,VALID,0,VALID,23.4067,VALID,28,VALID,0,
2010-07-30, 00:12:04,VALID,1001.5,VALID,0,VALID,91.4791,VALID,0,VALID,23.428,VALID,28,VALID,0,
2010-07-30, 00:13:04,VALID,1001.44,VALID,0,VALID,91.5936,VALID,0,VALID,23.3872,VALID,28,VALID,0,
2010-07-30, 00:14:04,VALID,1001.38,VALID,0,VALID,91.7996,VALID,0,VALID,23.4475,VALID,28,VALID,0,
2010-07-30, 00:15:04,VALID,1001.37,VALID,0,VALID,92.0361,VALID,0,VALID,23.4671,VALID,28,VALID,0,
2010-07-30, 00:16:04,VALID,1001.28,VALID,0,VALID,92.2574,VALID,0,VALID,23.4866,VALID,28,VALID,0,
2010-07-30, 00:17:04,VALID,1001.22,VALID,0,VALID,92.4023,VALID,0,VALID,23.4848,VALID,28,VALID,0,
2010-07-30, 00:18:04,VALID,1001.2,VALID,0,VALID,92.5168,VALID,0,VALID,23.5061,VALID,28,VALID,0,
2010-07-30, 00:19:04,VALID,1001.16,VALID,0,VALID,92.6083,VALID,0,VALID,23.5238,VALID,187,VALID,0,
2010-07-30, 00:20:04,VALID,1001.11,VALID,0,VALID,92.738,VALID,0,VALID,23.5433,VALID,190,VALID,0.801172,
2010-07-30, 00:21:04,VALID,1001.05,VALID,0,VALID,92.8448,VALID,0,VALID,23.5841,VALID,212,VALID,0.554297,
2010-07-30, 00:22:04,VALID,1001.06,VALID,0,VALID,92.8906,VALID,0,VALID,23.5823,VALID,212,VALID,0.161719,
2010-07-30, 00:23:04,VALID,1001.05,VALID,0,VALID,92.944,VALID,0,VALID,23.6036,VALID,212,VALID,0,
2010-07-30, 00:24:04,VALID,1001.06,VALID,0,VALID,92.9517,VALID,0,VALID,23.6036,VALID,212,VALID,0.204297,
2010-07-30, 00:25:04,VALID,1001.13,VALID,0,VALID,92.9059,VALID,0,VALID,23.5841,VALID,212,VALID,0.412891,
2010-07-30, 00:26:04,VALID,1001.12,VALID,0,VALID,92.8296,VALID,0,VALID,23.5451,VALID,212,VALID,0.400391,
2010-07-30, 00:27:04,VALID,1001.16,VALID,0,VALID,92.7685,VALID,0,VALID,23.5451,VALID,212,VALID,0.371875,
2010-07-30, 00:28:04,VALID,1001.17,VALID,0,VALID,92.7304,VALID,0,VALID,23.5451,VALID,212,VALID,0,
2010-07-30, 00:29:04,VALID,1001.22,VALID,0,VALID,92.6923,VALID,0,VALID,23.5043,VALID,212,VALID,0,
2010-07-30, 00:30:04,VALID,1001.2,VALID,0,VALID,92.6388,VALID,0,VALID,23.4848,VALID,212,VALID,0,
2010-07-30, 00:31:04,VALID,1001.19,VALID,0,VALID,92.6007,VALID,0,VALID,23.5043,VALID,212,VALID,0,
2010-07-30, 00:32:04,VALID,1001.21,VALID,0,VALID,92.5931,VALID,0,VALID,23.5451,VALID,212,VALID,0,
2010-07-30, 00:33:04,VALID,1001.16,VALID,0,VALID,92.616,VALID,0,VALID,23.5646,VALID,233,VALID,0.267578,
2010-07-30, 00:34:04,VALID,1001.15,VALID,0,VALID,92.5854,VALID,0,VALID,23.5433,VALID,245,VALID,0.439453,
2010-07-30, 00:35:04,VALID,1001.16,VALID,0,VALID,92.5397,VALID,0,VALID,23.5628,VALID,245,VALID,0,
2010-07-30, 00:36:04,VALID,1001.17,VALID,0,VALID,92.532,VALID,0,VALID,23.5841,VALID,245,VALID,0,
2010-07-30, 00:37:04,VALID,1001.18,VALID,0,VALID,92.5549,VALID,0,VALID,23.6232,VALID,230,VALID,0,
2010-07-30, 00:38:04,VALID,1001.19,VALID,0,VALID,92.5778,VALID,0,VALID,23.6622,VALID,225,VALID,0,
2010-07-30, 00:39:04,VALID,1001.22,VALID,0,VALID,92.5626,VALID,0,VALID,23.6622,VALID,225,VALID,0,
2010-07-30, 00:40:04,VALID,1001.24,VALID,0,VALID,92.4939,VALID,0,VALID,23.6409,VALID,225,VALID,0,
2010-07-30, 00:41:04,VALID,1001.27,VALID,0,VALID,92.4176,VALID,0,VALID,23.6409,VALID,225,VALID,0,
2010-07-30, 00:42:04,VALID,1001.27,VALID,0,VALID,92.3031,VALID,0,VALID,23.6409,VALID,225,VALID,0,
2010-07-30, 00:43:04,VALID,1001.3,VALID,0,VALID,92.2574,VALID,0,VALID,23.6214,VALID,251,VALID,0.859375,
2010-07-30, 00:44:04,VALID,1001.31,VALID,0,VALID,92.2268,VALID,0,VALID,23.6427,VALID,228,VALID,0.965625,
2010-07-30, 00:45:04,VALID,1001.35,VALID,0,VALID,92.2192,VALID,0,VALID,23.6214,VALID,223,VALID,0.363672,
2010-07-30, 00:46:04,VALID,1001.35,VALID,0,VALID,92.1582,VALID,0,VALID,23.6232,VALID,223,VALID,0,
2010-07-30, 00:47:04,VALID,1001.35,VALID,0,VALID,92.1658,VALID,0,VALID,23.5841,VALID,242,VALID,0,
2010-07-30, 00:48:04,VALID,1001.39,VALID,0,VALID,92.1582,VALID,0,VALID,23.5646,VALID,242,VALID,0,
2010-07-30, 00:49:04,VALID,1001.35,VALID,0,VALID,92.2192,VALID,0,VALID,23.5646,VALID,242,VALID,0,
2010-07-30, 00:50:04,VALID,1001.4,VALID,0,VALID,92.2879,VALID,0,VALID,23.5451,VALID,242,VALID,0,
2010-07-30, 00:51:04,VALID,1001.41,VALID,0,VALID,92.2955,VALID,0,VALID,23.5451,VALID,227,VALID,0.860937,
2010-07-30, 00:52:04,VALID,1001.42,VALID,0,VALID,92.3718,VALID,0,VALID,23.5646,VALID,223,VALID,1.16016,
2010-07-30, 00:53:04,VALID,1001.46,VALID,0,VALID,92.3108,VALID,0,VALID,23.5451,VALID,228,VALID,1.44883,
2010-07-30, 00:54:04,VALID,1001.43,VALID,0,VALID,92.2497,VALID,0,VALID,23.5256,VALID,209,VALID,1.28516,
2010-07-30, 00:55:04,VALID,1001.47,VALID,0,VALID,92.1887,VALID,0,VALID,23.5451,VALID,214,VALID,1.19531,
2010-07-30, 00:56:04,VALID,1001.49,VALID,0,VALID,92.0743,VALID,0,VALID,23.5238,VALID,214,VALID,1.54258,
2010-07-30, 00:57:04,VALID,1001.47,VALID,0,VALID,91.9369,VALID,0,VALID,23.5256,VALID,217,VALID,0.986328,
2010-07-30, 00:58:04,VALID,1001.47,VALID,0,VALID,91.853,VALID,0,VALID,23.5451,VALID,226,VALID,1.01602,
2010-07-30, 00:59:04,VALID,1001.5,VALID,0,VALID,91.7385,VALID,0,VALID,23.5433,VALID,213,VALID,0.981641,
2010-07-30, 01:00:04,VALID,1001.49,VALID,0,VALID,91.6775,VALID,0,VALID,23.5628,VALID,225,VALID,1.06172,
2010-07-30, 01:01:04,VALID,1001.46,VALID,0,VALID,91.647,VALID,0,VALID,23.5841,VALID,224,VALID,1.13867,
2010-07-30, 01:02:04,VALID,1001.49,VALID,0,VALID,91.708,VALID,0,VALID,23.6232,VALID,214,VALID,1.01523,
2010-07-30, 01:03:04,VALID,1001.49,VALID,0,VALID,91.6165,VALID,0,VALID,23.6232,VALID,217,VALID,1.47031,
2010-07-30, 01:04:04,VALID,1001.5,VALID,0,VALID,91.4715,VALID,0,VALID,23.6232,VALID,219,VALID,1.23789,
2010-07-30, 01:05:04,VALID,1001.54,VALID,0,VALID,91.4868,VALID,0,VALID,23.6427,VALID,190,VALID,1.59219,
2010-07-30, 01:06:04,VALID,1001.52,VALID,0,VALID,91.2731,VALID,0,VALID,23.6232,VALID,198,VALID,1.23672,
2010-07-30, 01:07:04,VALID,1001.56,VALID,0,VALID,91.0824,VALID,0,VALID,23.6232,VALID,194,VALID,1.10547,
2010-07-30, 01:08:04,VALID,1001.57,VALID,0,VALID,91.0443,VALID,0,VALID,23.6232,VALID,190,VALID,1.03633,
2010-07-30, 01:09:04,VALID,1001.59,VALID,0,VALID,90.9298,VALID,0,VALID,23.6232,VALID,172,VALID,1.00391,
2010-07-30, 01:10:04,VALID,1001.54,VALID,0,VALID,90.7925,VALID,0,VALID,23.6036,VALID,153,VALID,0.859375,
2010-07-30, 01:11:04,VALID,1001.55,VALID,0,VALID,90.5865,VALID,0,VALID,23.6036,VALID,154,VALID,0.965234,
2010-07-30, 01:12:04,VALID,1001.58,VALID,0,VALID,90.4339,VALID,0,VALID,23.6036,VALID,159,VALID,0.763281,
2010-07-30, 01:13:04,VALID,1001.54,VALID,0,VALID,90.5788,VALID,0,VALID,23.6036,VALID,148,VALID,0.576563,
2010-07-30, 01:14:04,VALID,1001.53,VALID,0,VALID,90.6857,VALID,0,VALID,23.6036,VALID,160,VALID,0.601953,
2010-07-30, 01:15:04,VALID,1001.49,VALID,0,VALID,90.6475,VALID,0,VALID,23.5841,VALID,163,VALID,0.856641,
2010-07-30, 01:16:04,VALID,1001.5,VALID,0,VALID,90.6475,VALID,0,VALID,23.5646,VALID,171,VALID,0.498437,
2010-07-30, 01:17:04,VALID,1001.45,VALID,0,VALID,90.3194,VALID,0,VALID,23.5451,VALID,188,VALID,0.699609,
2010-07-30, 01:18:04,VALID,1001.42,VALID,0.5,VALID,90.1516,VALID,0,VALID,23.5451,VALID,188,VALID,0.994531,
2010-07-30, 01:19:04,VALID,1001.42,VALID,0,VALID,90.3347,VALID,0,VALID,23.5451,VALID,188,VALID,0.859766,
2010-07-30, 01:20:04,VALID,1001.38,VALID,0,VALID,90.411,VALID,0,VALID,23.5646,VALID,167,VALID,0.683594,
2010-07-30, 01:21:04,VALID,1001.38,VALID,0,VALID,90.4873,VALID,0,VALID,23.5256,VALID,167,VALID,0.582812,
2010-07-30, 01:22:04,VALID,1001.41,VALID,0,VALID,90.5407,VALID,0,VALID,23.5256,VALID,167,VALID,0.960547,
2010-07-30, 01:23:04,VALID,1001.38,VALID,0,VALID,90.6475,VALID,0,VALID,23.5061,VALID,167,VALID,0.744922,
2010-07-30, 01:24:04,VALID,1001.41,VALID,0,VALID,90.5331,VALID,0,VALID,23.5061,VALID,155,VALID,0.844531,
2010-07-30, 01:25:04,VALID,1001.41,VALID,0,VALID,90.7772,VALID,0,VALID,23.5256,VALID,145,VALID,1.0293,
2010-07-30, 01:26:04,VALID,1001.41,VALID,0,VALID,90.9069,VALID,0,VALID,23.5256,VALID,145,VALID,1.25352,
2010-07-30, 01:27:04,VALID,1001.42,VALID,0,VALID,91.0671,VALID,0,VALID,23.5256,VALID,136,VALID,1.18906,
2010-07-30, 01:28:04,VALID,1001.46,VALID,0,VALID,91.2731,VALID,0,VALID,23.5061,VALID,142,VALID,1.32578,
2010-07-30, 01:29:04,VALID,1001.43,VALID,0,VALID,91.296,VALID,0,VALID,23.4866,VALID,131,VALID,1.64375,
2010-07-30, 01:30:04,VALID,1001.43,VALID,0,VALID,91.4181,VALID,0,VALID,23.4653,VALID,141,VALID,1.48633,
2010-07-30, 01:31:04,VALID,1001.43,VALID,0.5,VALID,91.296,VALID,0,VALID,23.4866,VALID,150,VALID,1.43633,
2010-07-30, 01:32:04,VALID,1001.43,VALID,0,VALID,91.2808,VALID,0,VALID,23.4866,VALID,138,VALID,1.3543,
2010-07-30, 01:33:04,VALID,1001.45,VALID,0,VALID,91.2655,VALID,0,VALID,23.4671,VALID,142,VALID,1.26445,
2010-07-30, 01:34:04,VALID,1001.41,VALID,0,VALID,91.4028,VALID,0,VALID,23.4067,VALID,139,VALID,1.23945,
2010-07-30, 01:35:04,VALID,1001.44,VALID,0,VALID,91.5402,VALID,0,VALID,23.4067,VALID,136,VALID,1.30117,
2010-07-30, 01:36:04,VALID,1001.42,VALID,0,VALID,91.586,VALID,0,VALID,23.4067,VALID,137,VALID,1.2668,
2010-07-30, 01:37:04,VALID,1001.45,VALID,0.5,VALID,91.7157,VALID,0,VALID,23.4085,VALID,137,VALID,0.992578,
2010-07-30, 01:38:04,VALID,1001.46,VALID,0,VALID,91.7843,VALID,0,VALID,23.4085,VALID,140,VALID,1.32539,
2010-07-30, 01:39:04,VALID,1001.47,VALID,0,VALID,91.8148,VALID,0,VALID,23.3695,VALID,134,VALID,1.20078,
2010-07-30, 01:40:04,VALID,1001.47,VALID,0,VALID,91.8835,VALID,0,VALID,23.3695,VALID,144,VALID,1.45898,
2010-07-30, 01:41:04,VALID,1001.5,VALID,0,VALID,91.914,VALID,0,VALID,23.35,VALID,139,VALID,1.39336,
2010-07-30, 01:42:04,VALID,1001.52,VALID,0,VALID,91.8454,VALID,0,VALID,23.3305,VALID,130,VALID,1.81641,
2010-07-30, 01:43:04,VALID,1001.53,VALID,0.5,VALID,91.792,VALID,0,VALID,23.311,VALID,132,VALID,1.81367,
2010-07-30, 01:44:04,VALID,1001.56,VALID,0,VALID,91.8759,VALID,0,VALID,23.311,VALID,126,VALID,1.73906,
2010-07-30, 01:45:04,VALID,1001.55,VALID,0,VALID,91.8759,VALID,0,VALID,23.2719,VALID,121,VALID,2.21914,
2010-07-30, 01:46:04,VALID,1001.54,VALID,0,VALID,91.9751,VALID,0,VALID,23.2507,VALID,123,VALID,1.75781,
2010-07-30, 01:47:04,VALID,1001.52,VALID,0,VALID,91.8454,VALID,0,VALID,23.2329,VALID,135,VALID,1.69687,
2010-07-30, 01:48:04,VALID,1001.49,VALID,0.5,VALID,91.9827,VALID,0,VALID,23.1921,VALID,130,VALID,1.70938,
2010-07-30, 01:49:04,VALID,1001.49,VALID,0,VALID,91.853,VALID,0,VALID,23.1744,VALID,129,VALID,1.61211,
2010-07-30, 01:50:04,VALID,1001.46,VALID,0,VALID,91.8225,VALID,0,VALID,23.1336,VALID,136,VALID,1.84297,
2010-07-30, 01:51:04,VALID,1001.48,VALID,0,VALID,91.9674,VALID,0,VALID,23.1354,VALID,143,VALID,1.25625,
2010-07-30, 01:52:04,VALID,1001.46,VALID,0.5,VALID,92.0437,VALID,0,VALID,23.1159,VALID,133,VALID,1.93086,
2010-07-30, 01:53:04,VALID,1001.43,VALID,0,VALID,92.0819,VALID,0,VALID,23.0964,VALID,134,VALID,1.95313,
2010-07-30, 01:54:04,VALID,1001.44,VALID,0,VALID,92.0743,VALID,0,VALID,23.0964,VALID,141,VALID,1.82891,
2010-07-30, 01:55:04,VALID,1001.45,VALID,0,VALID,92.1811,VALID,0,VALID,23.0573,VALID,140,VALID,1.84648,
2010-07-30, 01:56:04,VALID,1001.38,VALID,0.5,VALID,92.2497,VALID,0,VALID,23.0183,VALID,135,VALID,1.49102,
2010-07-30, 01:57:04,VALID,1001.37,VALID,0,VALID,92.3337,VALID,0,VALID,22.9971,VALID,134,VALID,1.75273,
2010-07-30, 01:58:04,VALID,1001.36,VALID,0,VALID,92.4634,VALID,0.112286,VALID,22.9988,VALID,135,VALID,1.18672,
2010-07-30, 01:59:04,VALID,1001.37,VALID,0,VALID,92.4786,VALID,0,VALID,22.9598,VALID,140,VALID,1.49727,
2010-07-30, 02:00:04,VALID,1001.36,VALID,0.5,VALID,92.5702,VALID,0,VALID,22.9793,VALID,140,VALID,1.78594,
2010-07-30, 02:01:04,VALID,1001.37,VALID,0,VALID,92.5931,VALID,0,VALID,22.9385,VALID,138,VALID,1.3043,
2010-07-30, 02:02:04,VALID,1001.35,VALID,0,VALID,92.677,VALID,0,VALID,22.9598,VALID,147,VALID,1.30859,
2010-07-30, 02:03:04,VALID,1001.35,VALID,0,VALID,92.7075,VALID,0,VALID,22.9403,VALID,140,VALID,1.85195,
2010-07-30, 02:04:04,VALID,1001.34,VALID,0,VALID,92.7228,VALID,0,VALID,22.9208,VALID,136,VALID,1.67188,
2010-07-30, 02:05:04,VALID,1001.32,VALID,0.5,VALID,92.7609,VALID,0,VALID,22.8995,VALID,134,VALID,1.63242,
2010-07-30, 02:06:04,VALID,1001.34,VALID,0,VALID,92.8448,VALID,0,VALID,22.9013,VALID,127,VALID,1.07344,
2010-07-30, 02:07:04,VALID,1001.35,VALID,0,VALID,92.883,VALID,0,VALID,22.8605,VALID,125,VALID,1.21094,
2010-07-30, 02:08:04,VALID,1001.33,VALID,0,VALID,92.9364,VALID,0,VALID,22.8623,VALID,122,VALID,1.54258,
2010-07-30, 02:09:04,VALID,1001.34,VALID,0,VALID,92.9745,VALID,0,VALID,22.8623,VALID,123,VALID,1.01719,
2010-07-30, 02:10:04,VALID,1001.31,VALID,0.5,VALID,93.028,VALID,0,VALID,22.8215,VALID,136,VALID,0.896484,
2010-07-30, 02:11:04,VALID,1001.33,VALID,0,VALID,93.0737,VALID,0,VALID,22.8232,VALID,127,VALID,0.830078,
2010-07-30, 02:12:04,VALID,1001.31,VALID,0,VALID,93.1119,VALID,0,VALID,22.8037,VALID,122,VALID,1.25859,
2010-07-30, 02:13:04,VALID,1001.33,VALID,0,VALID,93.1424,VALID,0,VALID,22.7842,VALID,126,VALID,0.846094,
2010-07-30, 02:14:04,VALID,1001.33,VALID,0.5,VALID,93.2034,VALID,0,VALID,22.7842,VALID,106,VALID,1.15898,
2010-07-30, 02:15:04,VALID,1001.31,VALID,0,VALID,93.234,VALID,0,VALID,22.7825,VALID,103,VALID,0.936328,
2010-07-30, 02:16:04,VALID,1001.33,VALID,0,VALID,93.2645,VALID,0,VALID,22.7842,VALID,87,VALID,1.30234,
2010-07-30, 02:17:04,VALID,1001.31,VALID,0,VALID,93.3179,VALID,0,VALID,22.7842,VALID,69,VALID,1.01719,
2010-07-30, 02:18:04,VALID,1001.29,VALID,0,VALID,93.3179,VALID,0,VALID,22.7647,VALID,68,VALID,0.750781,
2010-07-30, 02:19:04,VALID,1001.27,VALID,0.5,VALID,93.3255,VALID,0,VALID,22.7842,VALID,56,VALID,0.903906,
2010-07-30, 02:20:04,VALID,1001.24,VALID,0,VALID,93.356,VALID,0,VALID,22.7647,VALID,49,VALID,0.785937,
2010-07-30, 02:21:04,VALID,1001.22,VALID,0,VALID,93.356,VALID,0,VALID,22.7647,VALID,34,VALID,0.742188,
2010-07-30, 02:22:04,VALID,1001.17,VALID,0,VALID,93.4171,VALID,0,VALID,22.7435,VALID,10,VALID,0.738281,
2010-07-30, 02:23:04,VALID,1001.17,VALID,0,VALID,93.44,VALID,0,VALID,22.7647,VALID,5,VALID,0.982813,
2010-07-30, 02:24:04,VALID,1001.14,VALID,0,VALID,93.4476,VALID,0,VALID,22.763,VALID,351,VALID,1.02969,
2010-07-30, 02:25:04,VALID,1001.1,VALID,0.5,VALID,93.4781,VALID,0,VALID,22.763,VALID,351,VALID,0.764453,
2010-07-30, 02:26:04,VALID,1001.11,VALID,0,VALID,93.5315,VALID,0,VALID,22.763,VALID,350,VALID,0.360547,
2010-07-30, 02:27:04,VALID,1001.08,VALID,0,VALID,93.5391,VALID,0,VALID,22.8037,VALID,350,VALID,0,
2010-07-30, 02:28:04,VALID,1001.09,VALID,0,VALID,93.562,VALID,0,VALID,22.8232,VALID,350,VALID,0,
2010-07-30, 02:29:04,VALID,1001.06,VALID,0,VALID,93.5773,VALID,0,VALID,22.8232,VALID,350,VALID,0,
2010-07-30, 02:30:04,VALID,1001.04,VALID,0,VALID,93.5849,VALID,0,VALID,22.8037,VALID,350,VALID,0,
2010-07-30, 02:31:04,VALID,1001.05,VALID,0,VALID,93.5926,VALID,0,VALID,22.8232,VALID,350,VALID,0,
2010-07-30, 02:32:04,VALID,1001.02,VALID,0,VALID,93.6154,VALID,0,VALID,22.8037,VALID,350,VALID,0,
2010-07-30, 02:33:04,VALID,1000.99,VALID,0.5,VALID,93.6383,VALID,0,VALID,22.8232,VALID,317,VALID,0,
2010-07-30, 02:34:04,VALID,1000.98,VALID,0,VALID,93.646,VALID,0,VALID,22.8037,VALID,290,VALID,0,
2010-07-30, 02:35:04,VALID,1000.97,VALID,0,VALID,93.6612,VALID,0,VALID,22.7842,VALID,290,VALID,0,
2010-07-30, 02:36:04,VALID,1000.98,VALID,0,VALID,93.6765,VALID,0,VALID,22.7647,VALID,290,VALID,0,
2010-07-30, 02:37:04,VALID,1000.99,VALID,0,VALID,93.6688,VALID,0,VALID,22.7647,VALID,290,VALID,0,
2010-07-30, 02:38:04,VALID,1000.98,VALID,0,VALID,93.6841,VALID,0,VALID,22.7647,VALID,290,VALID,0,
2010-07-30, 02:39:04,VALID,1000.97,VALID,0,VALID,93.6917,VALID,0,VALID,22.7647,VALID,290,VALID,0,
2010-07-30, 02:40:04,VALID,1000.95,VALID,0,VALID,93.6841,VALID,0,VALID,22.7435,VALID,290,VALID,0,
2010-07-30, 02:41:04,VALID,1000.96,VALID,0,VALID,93.7146,VALID,0,VALID,22.7842,VALID,290,VALID,0,
2010-07-30, 02:42:04,VALID,1000.94,VALID,0,VALID,93.7223,VALID,0,VALID,22.7842,VALID,290,VALID,0,
2010-07-30, 02:43:04,VALID,1000.91,VALID,0,VALID,93.7375,VALID,0,VALID,22.8037,VALID,290,VALID,0,
2010-07-30, 02:44:04,VALID,1000.88,VALID,0,VALID,93.7528,VALID,0,VALID,22.8232,VALID,290,VALID,0,
2010-07-30, 02:45:04,VALID,1000.92,VALID,0.5,VALID,93.7604,VALID,0,VALID,22.8037,VALID,290,VALID,0,
2010-07-30, 02:46:04,VALID,1000.93,VALID,0,VALID,93.7985,VALID,0,VALID,22.8037,VALID,290,VALID,0,
2010-07-30, 02:47:04,VALID,1000.9,VALID,0,VALID,93.768,VALID,0,VALID,22.8037,VALID,290,VALID,0,
2010-07-30, 02:48:04,VALID,1000.88,VALID,0,VALID,93.7757,VALID,0,VALID,22.8232,VALID,290,VALID,0,
2010-07-30, 02:49:04,VALID,1000.88,VALID,0,VALID,93.7757,VALID,0,VALID,22.8232,VALID,290,VALID,0,
2010-07-30, 02:50:04,VALID,1000.88,VALID,0,VALID,93.7985,VALID,0,VALID,22.802,VALID,290,VALID,0,
2010-07-30, 02:51:04,VALID,1000.85,VALID,0,VALID,93.8062,VALID,0,VALID,22.8232,VALID,290,VALID,0,
2010-07-30, 02:52:04,VALID,1000.89,VALID,0,VALID,93.8291,VALID,0,VALID,22.8037,VALID,290,VALID,0,
2010-07-30, 02:53:04,VALID,1000.88,VALID,0,VALID,93.8443,VALID,0,VALID,22.7842,VALID,290,VALID,0,
2010-07-30, 02:54:04,VALID,1000.87,VALID,0,VALID,93.8596,VALID,0,VALID,22.7842,VALID,290,VALID,0,
2010-07-30, 02:55:04,VALID,1000.86,VALID,0,VALID,93.8291,VALID,0,VALID,22.763,VALID,289,VALID,0,
2010-07-30, 02:56:04,VALID,1000.9,VALID,0,VALID,93.8367,VALID,0,VALID,22.7435,VALID,287,VALID,0,
2010-07-30, 02:57:04,VALID,1000.91,VALID,0,VALID,93.8748,VALID,0,VALID,22.7842,VALID,287,VALID,0,
2010-07-30, 02:58:04,VALID,1000.89,VALID,0,VALID,93.8672,VALID,0,VALID,22.7647,VALID,287,VALID,0,
2010-07-30, 02:59:04,VALID,1000.94,VALID,0,VALID,93.8748,VALID,0,VALID,22.7647,VALID,287,VALID,0,
2010-07-30, 03:00:04,VALID,1000.95,VALID,0,VALID,93.8672,VALID,0,VALID,22.7452,VALID,287,VALID,0,
2010-07-30, 03:01:04,VALID,1000.97,VALID,0,VALID,93.8825,VALID,0,VALID,22.7452,VALID,287,VALID,0,
2010-07-30, 03:02:04,VALID,1000.99,VALID,0,VALID,93.8825,VALID,0,VALID,22.7647,VALID,287,VALID,0,
2010-07-30, 03:03:04,VALID,1000.96,VALID,0,VALID,93.8901,VALID,0,VALID,22.7647,VALID,287,VALID,0,
2010-07-30, 03:04:04,VALID,1000.96,VALID,0,VALID,93.913,VALID,0,VALID,22.763,VALID,287,VALID,0,
2010-07-30, 03:05:04,VALID,1000.99,VALID,0,VALID,93.9054,VALID,0,VALID,22.7647,VALID,287,VALID,0,
2010-07-30, 03:06:04,VALID,1001,VALID,0,VALID,93.913,VALID,0,VALID,22.7647,VALID,287,VALID,0,
2010-07-30, 03:07:04,VALID,1001,VALID,0,VALID,93.9054,VALID,0,VALID,22.7647,VALID,287,VALID,0,
2010-07-30, 03:08:04,VALID,1001,VALID,0,VALID,93.9206,VALID,0,VALID,22.7452,VALID,287,VALID,0,
2010-07-30, 03:09:04,VALID,1000.98,VALID,0,VALID,93.9206,VALID,0,VALID,22.7452,VALID,287,VALID,0,
2010-07-30, 03:10:04,VALID,1000.99,VALID,0,VALID,93.9435,VALID,0,VALID,22.724,VALID,287,VALID,0,
2010-07-30, 03:11:04,VALID,1001.02,VALID,0,VALID,93.9359,VALID,0,VALID,22.7257,VALID,287,VALID,0,
2010-07-30, 03:12:04,VALID,1000.99,VALID,0,VALID,93.9283,VALID,0,VALID,22.7045,VALID,287,VALID,0,
2010-07-30, 03:13:04,VALID,1001,VALID,0,VALID,93.9435,VALID,0,VALID,22.7045,VALID,258,VALID,0,
2010-07-30, 03:14:04,VALID,1000.98,VALID,0,VALID,93.9511,VALID,0,VALID,22.7045,VALID,258,VALID,0,
2010-07-30, 03:15:04,VALID,1000.95,VALID,0,VALID,93.9664,VALID,0,VALID,22.7045,VALID,258,VALID,0,
2010-07-30, 03:16:04,VALID,1000.95,VALID,0,VALID,93.9588,VALID,0,VALID,22.7435,VALID,258,VALID,0,
2010-07-30, 03:17:04,VALID,1000.95,VALID,0,VALID,93.9511,VALID,0,VALID,22.7435,VALID,258,VALID,0,
2010-07-30, 03:18:04,VALID,1000.92,VALID,0,VALID,93.974,VALID,0,VALID,22.7452,VALID,258,VALID,0,
2010-07-30, 03:19:04,VALID,1000.95,VALID,0,VALID,93.974,VALID,0,VALID,22.7027,VALID,258,VALID,0,
2010-07-30, 03:20:04,VALID,1000.94,VALID,0,VALID,93.9893,VALID,0,VALID,22.763,VALID,272,VALID,0,
2010-07-30, 03:21:04,VALID,1000.94,VALID,0,VALID,93.9817,VALID,0,VALID,22.7842,VALID,272,VALID,0,
2010-07-30, 03:22:04,VALID,1000.96,VALID,0,VALID,94.0122,VALID,0,VALID,22.763,VALID,272,VALID,0,
2010-07-30, 03:23:04,VALID,1000.91,VALID,0,VALID,94.0045,VALID,0,VALID,22.7842,VALID,271,VALID,0,
2010-07-30, 03:24:04,VALID,1000.95,VALID,0,VALID,93.9893,VALID,0,VALID,22.763,VALID,270,VALID,0,
2010-07-30, 03:25:04,VALID,1000.89,VALID,0,VALID,94.0045,VALID,0,VALID,22.7842,VALID,268,VALID,0,
2010-07-30, 03:26:04,VALID,1000.93,VALID,0,VALID,94.0045,VALID,0,VALID,22.7842,VALID,256,VALID,0,
2010-07-30, 03:27:04,VALID,1000.92,VALID,0,VALID,94.0122,VALID,0,VALID,22.763,VALID,251,VALID,0,
2010-07-30, 03:28:04,VALID,1000.9,VALID,0,VALID,93.9969,VALID,0,VALID,22.8037,VALID,251,VALID,0,
2010-07-30, 03:29:04,VALID,1000.95,VALID,0,VALID,94.0198,VALID,0,VALID,22.8037,VALID,251,VALID,0,
2010-07-30, 03:30:04,VALID,1000.94,VALID,0,VALID,94.0198,VALID,0,VALID,22.7842,VALID,251,VALID,0,
2010-07-30, 03:31:04,VALID,1000.92,VALID,0,VALID,94.0122,VALID,0,VALID,22.8037,VALID,251,VALID,0,
2010-07-30, 03:32:04,VALID,1000.92,VALID,0,VALID,94.0274,VALID,0,VALID,22.825,VALID,247,VALID,0,
2010-07-30, 03:33:04,VALID,1000.92,VALID,0,VALID,94.0274,VALID,0,VALID,22.7825,VALID,247,VALID,0,
2010-07-30, 03:34:04,VALID,1000.92,VALID,0,VALID,94.0274,VALID,0,VALID,22.8037,VALID,247,VALID,0,
2010-07-30, 03:35:04,VALID,1000.9,VALID,0,VALID,94.0351,VALID,0,VALID,22.7825,VALID,247,VALID,0,
2010-07-30, 03:36:04,VALID,1000.92,VALID,0,VALID,94.0427,VALID,0,VALID,22.8427,VALID,247,VALID,0,
2010-07-30, 03:37:04,VALID,1000.92,VALID,0,VALID,94.0274,VALID,0,VALID,22.8232,VALID,247,VALID,0,
2010-07-30, 03:38:04,VALID,1000.94,VALID,0,VALID,94.0503,VALID,0,VALID,22.8037,VALID,247,VALID,0,
2010-07-30, 03:39:04,VALID,1000.97,VALID,0,VALID,94.0427,VALID,0,VALID,22.802,VALID,247,VALID,0,
2010-07-30, 03:40:04,VALID,1000.98,VALID,0,VALID,94.0427,VALID,0,VALID,22.8037,VALID,245,VALID,0,
2010-07-30, 03:41:04,VALID,1000.98,VALID,0,VALID,94.0427,VALID,0,VALID,22.7842,VALID,244,VALID,0,
2010-07-30, 03:42:04,VALID,1001.01,VALID,0,VALID,94.0427,VALID,0,VALID,22.7842,VALID,244,VALID,0,
2010-07-30, 03:43:04,VALID,1000.99,VALID,0,VALID,94.0503,VALID,0,VALID,22.7842,VALID,244,VALID,0,
2010-07-30, 03:44:04,VALID,1001.01,VALID,0,VALID,94.0274,VALID,0,VALID,22.7842,VALID,243,VALID,0,
2010-07-30, 03:45:04,VALID,1000.99,VALID,0,VALID,94.0427,VALID,0,VALID,22.7842,VALID,183,VALID,0.0402344,
2010-07-30, 03:46:04,VALID,1000.97,VALID,0,VALID,94.0427,VALID,0,VALID,22.7647,VALID,182,VALID,1.03711,
2010-07-30, 03:47:04,VALID,1000.97,VALID,0,VALID,94.058,VALID,0,VALID,22.7842,VALID,182,VALID,0.867578,
2010-07-30, 03:48:04,VALID,1000.98,VALID,0,VALID,94.0656,VALID,0,VALID,22.7842,VALID,183,VALID,0.492188,
2010-07-30, 03:49:04,VALID,1000.97,VALID,0,VALID,94.0503,VALID,0,VALID,22.7842,VALID,183,VALID,0.538281,
2010-07-30, 03:50:04,VALID,1000.98,VALID,0,VALID,94.0656,VALID,0,VALID,22.7842,VALID,183,VALID,0,
2010-07-30, 03:51:04,VALID,1000.98,VALID,0,VALID,94.058,VALID,0,VALID,22.763,VALID,183,VALID,0,
2010-07-30, 03:52:04,VALID,1001.01,VALID,0,VALID,94.0427,VALID,0,VALID,22.7842,VALID,183,VALID,0,